SL-16 DEB, 39895

Orbit data source: Space-Track

SL-16 DEB, 39895 is space debris in LEO originally from a launch on Fri, 26 Mar 1993 UTC launched from the Tyuratam Missile And Space Complex (TTMTR). Debris objects in space refer to the collection of defunct objects orbiting the Earth. Examples of debris include non-operational satellites, rocket bodies, and fragments generated from explosions, collisions, or faulty payload assembly.

Loading next visibility...
Identifier
39895, 1993-016BV
Orbit
LEO
Country
Flag of CISCIS
Related business
Manufacturer
Unknown
Mission
Spacecraft
Bus & Motor
Unknown
Mass
Unknown
Launch date (UTC)
1993-03-26 (33 years ago)
Launch vehicle
Unknown
Launch site
Tyuratam Missile And Space Complex (TTMTR)
Object type
Payload
Rocket body
Debris
Shape & HBR
Unknown shape, 0.1 m
Radar Cross Section
Small (<0.1 m²)

Expand to show TLE details & history
Last TLE update: 9 hours ago

TLE from 9 hours ago
0 SL-16 DEB
1 39895U 93016BV  26035.44881098  .00000442  00000-0  33382-3 0  9993
2 39895  70.9891 108.9043 0120454 152.3020 208.4579 13.96153059315392
Epoch: 2026-02-04T10:46Z
TLE epoch observation values (Epoch: 2026-02-04T10:46:17.268Z)
Latitude
-0.00007°
Longitude
172.71709°
Altitude
986.924 km
Speed
7.319 km/s
True Right ascension
07h 15m 37s
True Declination
0° 00' 00"
Sunlit
Object was in full shadow at epoch
Visualization orbit readout
Latitude
Unknown
Longitude
Unknown
Altitude
Unknown
Speed
Unknown
Apparent Right ascension
Unknown
Apparent Declination
Unknown
Sunlit
N/A
Visualization observer readout
Local Sidereal Time
21:37:56
Azimuth
Unknown
Elevation
Unknown
Doppler factor
Unknown
Orbital elements
Apogee altitude
992.82 km
Perigee altitude
817.362 km
Semi-major axis
7,283.228 km
Eccentricity
0.01205
Inclination
70.9891°
RAAN
108.9043°
Arg. of periapsis
152.302°
True anomaly
207.80878°
Mean anomaly
208.4579°
Eccentric anomaly
208.13249°
Mean motion
3.49186 °/min
Orbital period
103.1 mins
BSTAR
0.00033382
Loading maneuver chart data...
Computing Atmospheric mass density...
Loading historical data...
Loading historical data...
Loading historical data...
Loading historical data...
Loading historical data...
Loading historical data...
Loading historical data...

Documentation

Showing up to 5 results
|